Regional Weather Roundup
Issued by NWS Upton, NY

Home | Current Version | Previous Version | Text Only | Print | Product List | Glossary On
Versions: 1 2 3 4 5 6 7 8 9 10 11 12 13 14 15 16 17 18 19 20 21 22 23 24 25 26 27 28 29 30 31 32 33 34 35 36 37 38 39 40 41 42 43 44 45 46 47 48 49 50
000
ASUS41 KOKX 291705
RWROKX

REGIONAL WEATHER ROUNDUP
NATIONAL WEATHER SERVICE NEW YORK NY
100 PM EDT FRI AUG 29 2014

NOTE: "FAIR" INDICATES FEW OR NO CLOUDS BELOW 12,000 FEET WITH NO
SIGNIFICANT WEATHER AND/OR OBSTRUCTIONS TO VISIBILITY.

NYZ071-072-176-178-NJZ106-104-291800-
NEW YORK CITY METRO AREA


CITY           SKY/WX    TMP DP  RH WIND       PRES   REMARKS
CENTRAL PARK   MOSUNNY   76  49  38 NE8       30.21F
LAGUARDIA APRT MOSUNNY   73  49  42 CALM      30.18F
KENNEDY INTL   MOSUNNY   78  47  33 NE9       30.19S
NEWARK/LIBERTY MOSUNNY   75  48  38 VRB5      30.18F
BRNX BOT. GARD   N/A     73  50  43 E1        30.19F
TETERBORO      SUNNY     75  48  38 VRB3      30.17F
$$

NYZ177-179-078>081-291800-
LONG ISLAND NEW YORK

CITY           SKY/WX    TMP DP  RH WIND       PRES   REMARKS
FARMINGDALE    SUNNY     74  49  41 NE8       30.19S
ISLIP          MOSUNNY   74  49  41 NE8       30.17S
SHIRLEY        MOSUNNY   75  49  39 CALM      30.19S
WESTHAMPTON    MOSUNNY   75  50  41 MISG      30.19F
MONTAUK POINT    N/A     72  54  53 VRB7      30.20S
$$

NYZ052-065-067-291800-
HUDSON VALLEY

CITY           SKY/WX    TMP DP  RH WIND       PRES   REMARKS
WHITE PLAINS   MOSUNNY   72  50  45 SW6       30.19S
NEWBURGH       MOSUNNY   73  55  53 VRB5      30.21F
MONTGOMERY     SUNNY     75  50  41 VRB6      30.19F
POUGHKEEPSIE   MOSUNNY   74  53  48 E6        30.18F
ALBANY         MOSUNNY   73  52  47 N8        30.20F
$$

NJZ001-105-106-008-010-013-015-019>022-104-291800-
NEW JERSEY

CITY           SKY/WX    TMP DP  RH WIND       PRES   REMARKS
NEWARK/LIBERTY MOSUNNY   75  48  38 VRB5      30.18F
TETERBORO      SUNNY     75  48  38 VRB3      30.17F
CALDWELL       MOSUNNY   73  48  41 S5        30.19S
MORRISTOWN     SUNNY     75  48  38 CALM      30.19S
SOMERVILLE     MOSUNNY   76  48  37 VRB3      30.17F
LINDEN         FAIR      80  50  34 SE9       30.20S
SUSSEX         LGT RAIN  74  50  42 CALM      30.20S
ANDOVER          N/A     73  51  46 NW3       30.20F
TRENTON        SUNNY     74  50  42 VRB3      30.18F
MILLVILLE      MOSUNNY   75  53  46 N8        30.18F
ATLANTIC CITY  PTSUNNY   72  59  63 VRB6      30.18F
WRIGHTSTOWN    MOSUNNY   74  51  43 VRB1      30.16F
TOMS RIVER     PTSUNNY   73  54  49 CALM      30.19F
BELMAR         MOSUNNY   72  52  49 E10       30.19S
$$

PAZ047>061-062-071-291800-
EASTERN PENNSYLVANIA

CITY           SKY/WX    TMP DP  RH WIND       PRES   REMARKS
PHILADELPHIA   PTSUNNY   78  48  34 CALM      30.18F
ALLENTOWN      MOSUNNY   75  52  44 NW6       30.19F
SCRANTON       SUNNY     71  51  49 CALM      30.20F
$$

CTZ002-004>006-009-010-012-RIZ004-006-007-MAZ004-011-015-291800-
SOUTHERN NEW ENGLAND
 IN CT

CITY           SKY/WX    TMP DP  RH WIND       PRES   REMARKS
BRADLEY INTL   MOSUNNY   76  50  40 VRB6      30.18S
HARTFORD       MOSUNNY   74  50  42 W6        30.18S
DANBURY        MOSUNNY   72  51  47 MISG      30.20F
WTRBRY/OXFORD  MOSUNNY   70  52  52 N5        30.21F
BRIDGEPORT     SUNNY     73  54  51 S12       30.18S
MERIDEN        SUNNY     76  49  38 MISG      30.18S
NEW HAVEN      MOSUNNY   75  54  47 S12       30.18S
CHESTER        FAIR      72  50  46 NE8       30.19F
GROTON         MOSUNNY   71  56  58 S10       30.17S
WILLIMANTIC    MOSUNNY   73  49  42 VRB3      30.19R

 IN RI

CITY           SKY/WX    TMP DP  RH WIND       PRES   REMARKS
PROVIDENCE     MOSUNNY   75  51  43 E8        30.18F
BLOCK ISLAND   SUNNY     70  54  56 E8        30.19F
WESTERLY       MOSUNNY   73  49  42 S10       30.18F

 IN MA

CITY           SKY/WX    TMP DP  RH WIND       PRES   REMARKS
BOSTON         MOSUNNY   69  56  62 E17       30.19S
WORCESTER      MOSUNNY   69  50  50 VRB5      30.21R
WESTFIELD      SUNNY     73  50  44 MISG      30.19R
PROVINCETOWN   MOSUNNY   66  54  63 NE10      30.20S
NANTUCKET      SUNNY     70  54  56 N16G22    30.18R
$$

ANZ330-335-338-340-345-350-353-355-291800-
COASTAL MARINE OBSERVATIONS


STATION/POSITION TIME  SKY/WX   TEMP    WIND        PRES    VSBY  WAVE
                                AIR SEA DIR/SP/G                  HT/PER
                 (UTC)          (F)     (DEG/KT/KT) (MB)    (MI)  (FT/S)
NY HARB ENTRANCE NOT AVBL
4S FIRE IS       NOT AVBL
23SW MTP         1700                                 N/A           3/10
HUDSON CANYON    1700            69 73   40/  8/ 12 1021.9          5/10
EXECUTION ROCKS  1700            71 75   90/  4/  8   N/A
WESTERN LI SOUND 1700            70     140/  6/  8   N/A           1
CENTRAL LI SOUND 1600            68 72  130/  6/  6   N/A           1/ 2
EASTERN LI SOUND 1600            68 69  180/  6/  8   N/A
ROBBINS REEF     1700            71     150/  2/  3   N/A
$$


>>>>>>>>>>>>>>>>>>>>>>>>>>>> KEY <<<<<<<<<<<<<<<<<<<<<<<<<<<
>                                                          <
>     SKY/WX - SKY CONDITION/PRESENT WEATHER               <
>     TMP    - TEMPERATURE IN FAHRENHEIT                   <
>     DP     - DEWPOINT IN FAHRENHEIT                      <
>     RH     - RELATIVE HUMIDITY IN PERCENT                <
>     WIND   - DIRECTION AND SPEED IN MPH                  <
>     PRES   - MEAN SEA LEVEL PRESSURE IN INCHES OF HG     <
>     WCI    - WIND CHILL INDEX                            <
>     VSB    - VISIBILITY IN MILES                         <
>     HX     - HEAT INDEX                                  <
>     TC     - TEMPERATURE IN CELSIUS                      <
>     VRB    - VARIABLE WIND DIRECTION                     <
>                                                          <
>>>>>>>>>>>>>>>>>>>>>>>>>>>> KEY <<<<<<<<<<<<<<<<<<<<<<<<<<<





USA.gov is the U.S. government's official web portal to all federal, state and local government web resources and services.